Volver al catálogo

ONEWEB-0149

ActivoComunicacionesPO
NORAD 48058·PAYLOAD·🇬🇧 United Kingdom

Lanzado Mar 25, 2021 desde Vostochny Cosmodrome

Loading…

Próximos Pases (próximas 24 horas)

TLE

ActualizadoSource: CelesTrak SupGP

Época: Sep 14, 2026, 23:37 UTC

1 48058C 21025S   26257.98419399  .00003567  00000+0  97806-2 0  2578
2 48058  87.8916 302.3623 0001959 102.8970 314.0485 13.13463305    11

Sigue ONEWEB-0149 en tiempo real con AllMySat

Download on the App Store